Regional Weather Roundup
Issued by NWS State College, PA

Home | Current Version | Previous Version | Text Only | Print | Product List | Glossary Off
Versions: 1 2 3 4 5 6 7 8 9 10 11 12 13 14 15 16 17 18 19 20 21 22 23 24 25 26 27 28 29 30 31 32 33 34 35 36 37 38 39 40 41 42 43 44 45 46 47 48 49 50

000
ASUS41 KCTP 310710
RWRCTP

REGIONAL WEATHER ROUNDUP
NATIONAL WEATHER SERVICE STATE COLLEGE PA
300 AM EDT FRI JUL 31 2015

Note: "fair" indicates few or no clouds below 12,000 feet with no
significant weather and/or obstructions to visibility.

* = STATION THAT DOES NOT REPORT PRECIPITATION /E.G. RAIN...SNOW...ETC/
    THUNDER OR FOG.

PAZ002>004-007>009-013>016-020>023-029>032-310800-
WESTERN PENNSYLVANIA

CITY           SKY/WX    TMP DP  RH WIND       PRES   REMARKS
ERIE           CLEAR     71  62  73 SW5       29.93S
MEADVILLE      CLEAR     67  59  75 W5        29.98S
FRANKLIN*      PTCLDY    63  54  72 W7        30.00S
NEW CASTLE     FAIR      65  60  83 CALM      30.00S
BEAVER COUNTY  NOT AVBL
BUTLER*        CLEAR     63  57  82 W3        30.00F
PITTSBURGH INT PTCLDY    67  57  70 W5        29.99F
PITTSBURGH     MOCLDY    69  54  58 W9        29.99S
INDIANA*       CLOUDY    66  61  82 CALM      30.02S
LATROBE        NOT AVBL
WASHINGTON CO* NOT AVBL
$$

PAZ004>006-010>012-017>019-024>028-033>037-041-042-045-046-049>053-310800-
CENTRAL PENNSYLVANIA

CITY           SKY/WX    TMP DP  RH WIND       PRES   REMARKS
BRADFORD       PTCLDY    53  51  93 CALM      29.98S
DUBOIS         MOCLDY    64  55  72 SW7       29.98S
CLEARFIELD     MOCLDY    60  57  89 SW5       29.98S
JOHNSTOWN      PTCLDY    65  53  65 W9        30.02F
ALTOONA        CLEAR     61  57  87 S3        29.99S
STATE COLLEGE  MOCLDY    67  55  66 SW6       29.96S
WILLIAMSPORT   CLEAR     62  58  86 NW3       29.91S
SELINSGROVE    CLEAR     60  59  96 CALM      29.92S
FT INDIANTOWN  CLEAR     70  58  65 NW3       29.91S
CAPITAL CITY   CLEAR     69  60  73 SW6       29.91S
HARRISBURG     PTCLDY    70  61  73 NW7       29.90S
YORK           CLEAR     64  60  87 CALM      29.93R
$$

PAZ038>040-043-044-047-048-054-055-060>062-067>071-310800-
EASTERN PENNSYLVANIA

CITY           SKY/WX    TMP DP  RH WIND       PRES   REMARKS
SCRANTON       CLEAR     63  59  87 S3        29.91S
MOUNT POCONO   CLEAR     61  58  90 CALM      29.94F
ALLENTOWN      CLEAR     67  62  84 W5        29.89R
QUAKERTOWN*    SUNNY     68  64  88 CALM      29.90S
READING        CLEAR     69  62  78 W5        29.89S
LANCASTER      CLEAR     66  61  84 W7        29.91S
COATESVILLE    SUNNY     70  63  78 NW8       29.92S
POTTSTOWN      CLEAR     68  65  90 CALM      29.90S
BLUE BELL      CLEAR     70  68  94 CALM      29.88R
DOYLESTOWN     CLEAR     70  64  81 N3        29.87S
WILLOW GROVE   NOT AVBL
NORTH PHILA    CLEAR     75  65  70 NW8       29.88R
PHILADELPHIA   CLEAR     76  65  68 NW10      29.87S
$$


USA.gov is the U.S. government's official web portal to all federal, state and local government web resources and services.